Hourly Weather Mons

Today, 13 July, Monday

Time Temperature Precipitation Wind Pressure Humidity
00:00 +13°C° 0 mm 2 mps 767 mmHg 86%
01:00 +13°C° 0 mm 2 mps 767 mmHg 87%
02:00 +12°C° 0 mm 2 mps 766 mmHg 88%
03:00 +12°C° 0 mm 2 mps 766 mmHg 89%
04:00 +13°C° 0 mm 1 mps 766 mmHg 85%
05:00 +14°C° 0 mm 1 mps 766 mmHg 81%
06:00 +15°C° 0 mm 1 mps 766 mmHg 77%
07:00 +18°C° 0 mm 1 mps 765 mmHg 70%
08:00 +19°C° 0 mm 2 mps 765 mmHg 63%
09:00 +21°C° 0 mm 2 mps 765 mmHg 56%
10:00 +21°C° 0 mm 2 mps 765 mmHg 53%
11:00 +23°C° 0 mm 2 mps 765 mmHg 50%
12:00 +24°C° 0 mm 2 mps 764 mmHg 46%
13:00 +24°C° 0 mm 2 mps 764 mmHg 45%
14:00 +25°C° 0 mm 2 mps 763 mmHg 43%
15:00 +25°C° 0 mm 2 mps 763 mmHg 41%
16:00 +24°C° 0 mm 2 mps 763 mmHg 47%
17:00 +23°C° 0 mm 2 mps 762 mmHg 52%
18:00 +23°C° 0 mm 2 mps 762 mmHg 57%
19:00 +19°C° 0 mm 2 mps 762 mmHg 61%
20:00 +17°C° 0 mm 2 mps 762 mmHg 65%
21:00 +15°C° 0 mm 1 mps 762 mmHg 69%
22:00 +15°C° 0 mm 1 mps 762 mmHg 71%
23:00 +14°C° 0 mm 1 mps 762 mmHg 74%

Tomorrow, 14 July, Tuesday

Time Temperature Precipitation Wind Pressure Humidity
00:00 +14°C° 0 mm 1 mps 762 mmHg 76%
01:00 +14°C° 0 mm 1 mps 761 mmHg 77%
02:00 +13°C° 0 mm 1 mps 761 mmHg 78%
03:00 +13°C° 0 mm 1 mps 761 mmHg 80%
04:00 +14°C° 0 mm 2 mps 761 mmHg 78%
05:00 +15°C° 0 mm 2 mps 760 mmHg 77%
06:00 +15°C° 0 mm 2 mps 760 mmHg 76%
07:00 +16°C° 0.1 mm 3 mps 760 mmHg 78%
08:00 +16°C° 0.1 mm 3 mps 760 mmHg 80%
09:00 +16°C° 0.1 mm 3 mps 760 mmHg 82%
10:00 +17°C° 0 mm 3 mps 760 mmHg 82%
11:00 +17°C° 0 mm 4 mps 759 mmHg 82%
12:00 +17°C° 0 mm 4 mps 759 mmHg 82%
13:00 +18°C° 0.1 mm 3 mps 759 mmHg 82%
14:00 +18°C° 0.1 mm 3 mps 759 mmHg 83%
15:00 +18°C° 0.1 mm 2 mps 758 mmHg 83%
16:00 +18°C° 0.9 mm 2 mps 758 mmHg 85%
17:00 +19°C° 0.9 mm 2 mps 758 mmHg 86%
18:00 +19°C° 0.9 mm 2 mps 758 mmHg 88%
19:00 +18°C° 0.3 mm 2 mps 758 mmHg 90%
20:00 +17°C° 0.3 mm 2 mps 758 mmHg 92%
21:00 +16°C° 0.3 mm 3 mps 758 mmHg 94%
22:00 +16°C° 0 mm 2 mps 758 mmHg 94%
23:00 +15°C° 0 mm 2 mps 758 mmHg 93%

Day after tomorrow, 15 July, Wednesday

Time Temperature Precipitation Wind Pressure Humidity
00:00 +15°C° 0 mm 2 mps 758 mmHg 93%
01:00 +15°C° 0 mm 2 mps 758 mmHg 93%
02:00 +14°C° 0 mm 2 mps 758 mmHg 93%
03:00 +14°C° 0 mm 2 mps 757 mmHg 92%
04:00 +14°C° 0 mm 1 mps 758 mmHg 91%
05:00 +14°C° 0 mm 1 mps 758 mmHg 90%
06:00 +14°C° 0 mm 1 mps 758 mmHg 89%
07:00 +15°C° 0 mm 1 mps 758 mmHg 85%
08:00 +15°C° 0 mm 1 mps 758 mmHg 81%
09:00 +15°C° 0 mm 0 mps 758 mmHg 76%
10:00 +18°C° 0.1 mm 1 mps 759 mmHg 71%
11:00 +19°C° 0.1 mm 2 mps 759 mmHg 65%
12:00 +20°C° 0.1 mm 2 mps 759 mmHg 60%
13:00 +20°C° 0.1 mm 3 mps 759 mmHg 60%
14:00 +20°C° 0.1 mm 3 mps 759 mmHg 59%
15:00 +21°C° 0.1 mm 3 mps 759 mmHg 59%
16:00 +20°C° 0.1 mm 3 mps 759 mmHg 63%
17:00 +19°C° 0.1 mm 3 mps 759 mmHg 68%
18:00 +18°C° 0.1 mm 2 mps 759 mmHg 72%
19:00 +17°C° 0 mm 2 mps 760 mmHg 77%
20:00 +15°C° 0 mm 2 mps 760 mmHg 82%
21:00 +14°C° 0 mm 2 mps 761 mmHg 87%
22:00 +13°C° 0 mm 1 mps 761 mmHg 87%
23:00 +13°C° 0 mm 1 mps 761 mmHg 88%

16 July, Thursday

Time Temperature Precipitation Wind Pressure Humidity
00:00 +12°C° 0 mm 1 mps 761 mmHg 88%
01:00 +12°C° 0 mm 1 mps 761 mmHg 89%
02:00 +12°C° 0 mm 1 mps 761 mmHg 91%
03:00 +12°C° 0 mm 1 mps 761 mmHg 92%
04:00 +13°C° 0 mm 1 mps 761 mmHg 91%
05:00 +14°C° 0 mm 1 mps 762 mmHg 89%
06:00 +15°C° 0 mm 2 mps 762 mmHg 88%
07:00 +16°C° 0 mm 2 mps 762 mmHg 83%
08:00 +18°C° 0 mm 2 mps 762 mmHg 79%
09:00 +19°C° 0 mm 2 mps 762 mmHg 74%
10:00 +19°C° 0.5 mm 3 mps 762 mmHg 76%
11:00 +20°C° 0.5 mm 3 mps 762 mmHg 77%
12:00 +20°C° 0.5 mm 3 mps 762 mmHg 78%
13:00 +20°C° 0.4 mm 4 mps 762 mmHg 77%
14:00 +20°C° 0.4 mm 4 mps 762 mmHg 75%
15:00 +21°C° 0.4 mm 4 mps 762 mmHg 74%
16:00 +20°C° 0.2 mm 4 mps 762 mmHg 76%
17:00 +20°C° 0.2 mm 4 mps 762 mmHg 79%
18:00 +19°C° 0.2 mm 4 mps 762 mmHg 81%
19:00 +18°C° 0 mm 3 mps 762 mmHg 85%
20:00 +16°C° 0 mm 3 mps 763 mmHg 88%
21:00 +15°C° 0 mm 2 mps 763 mmHg 92%
22:00 +14°C° 0 mm 2 mps 763 mmHg 92%
23:00 +14°C° 0 mm 2 mps 763 mmHg 93%

17 July, Friday

Time Temperature Precipitation Wind Pressure Humidity
00:00 +13°C° 0 mm 1 mps 763 mmHg 94%
01:00 +13°C° 0 mm 1 mps 763 mmHg 94%
02:00 +13°C° 0 mm 1 mps 763 mmHg 94%
03:00 +12°C° 0 mm 1 mps 763 mmHg 94%
04:00 +13°C° 0 mm 1 mps 763 mmHg 92%
05:00 +14°C° 0 mm 1 mps 763 mmHg 89%
06:00 +15°C° 0 mm 1 mps 764 mmHg 87%
07:00 +18°C° 0 mm 1 mps 764 mmHg 80%
08:00 +19°C° 0 mm 1 mps 764 mmHg 72%
09:00 +21°C° 0 mm 1 mps 764 mmHg 65%
10:00 +21°C° 0 mm 2 mps 764 mmHg 62%
11:00 +23°C° 0 mm 2 mps 764 mmHg 58%
12:00 +23°C° 0 mm 2 mps 764 mmHg 55%
13:00 +24°C° 0 mm 2 mps 763 mmHg 55%
14:00 +24°C° 0 mm 2 mps 763 mmHg 54%
15:00 +25°C° 0 mm 3 mps 763 mmHg 54%
16:00 +24°C° 0 mm 2 mps 763 mmHg 59%
17:00 +23°C° 0 mm 2 mps 763 mmHg 64%
18:00 +23°C° 0 mm 2 mps 763 mmHg 69%
19:00 +20°C° 0 mm 2 mps 763 mmHg 74%
20:00 +19°C° 0 mm 2 mps 763 mmHg 80%
21:00 +17°C° 0 mm 2 mps 764 mmHg 85%
22:00 +16°C° 0 mm 1 mps 764 mmHg 86%
23:00 +16°C° 0 mm 1 mps 763 mmHg 88%

18 July, Saturday

Time Temperature Precipitation Wind Pressure Humidity
00:00 +14°C° 0 mm 0 mps 763 mmHg 89%
01:00 +14°C° 0 mm 0 mps 763 mmHg 90%
02:00 +13°C° 0 mm 0 mps 763 mmHg 90%
03:00 +13°C° 0 mm 0 mps 763 mmHg 90%
04:00 +14°C° 0 mm 0 mps 763 mmHg 88%
05:00 +16°C° 0 mm 1 mps 763 mmHg 85%
06:00 +18°C° 0 mm 1 mps 763 mmHg 83%
07:00 +20°C° 0 mm 1 mps 762 mmHg 76%
08:00 +22°C° 0 mm 1 mps 762 mmHg 69%
09:00 +24°C° 0 mm 2 mps 762 mmHg 62%
10:00 +24°C° 0 mm 2 mps 762 mmHg 60%
11:00 +25°C° 0 mm 2 mps 761 mmHg 57%
12:00 +26°C° 0 mm 3 mps 761 mmHg 54%
13:00 +26°C° 0 mm 3 mps 761 mmHg 54%
14:00 +27°C° 0 mm 4 mps 760 mmHg 54%
15:00 +27°C° 0 mm 4 mps 760 mmHg 54%
16:00 +26°C° 0 mm 4 mps 760 mmHg 58%
17:00 +25°C° 0 mm 4 mps 759 mmHg 61%
18:00 +25°C° 0 mm 3 mps 759 mmHg 65%
19:00 +22°C° 0 mm 3 mps 759 mmHg 70%
20:00 +19°C° 0 mm 3 mps 760 mmHg 75%
21:00 +17°C° 0 mm 3 mps 760 mmHg 80%
22:00 +17°C° 0 mm 3 mps 760 mmHg 84%
23:00 +16°C° 0 mm 3 mps 760 mmHg 88%
Show more